SL-24 R/B

Satellite information

Favourite Embed

Satellite Type and Status

ROCKET BODYIN ORBIT

Key statistics

Satellite SL-24 R/B at a glance.

Uptime

6757

Days in orbit

Revolutions

≈ 14.5

Per day

Orbit

SSO

Sun Synchronous Orbit

Inclination

97.4

Latest

Satellite identification and parameters

Extended collection of information and parameters for SL-24 R/B.

Object identification

Identified? True

Debris? False

Object name: SL-24 R/B

International designator: 2007-026B

Object number (NORAD): 31699

Object ID (CCSDS): 31699

Country: COMMONWEALTH OF INDEPENDENT STATES (CIS)

Current information (Y/N): Y

RCS size: LARGE

Orbital parameters

Period: 99.611 minutes

Inclination: 97.4395 deg

SMA: 7118.124 km

Apoapsis: 977.121 km

Periapsis: 502.857 km

RAAN: 333.9287 deg

Eccentricy: 0.0333138

Argument of periapsis: 219.8396 deg

Mean anomaly: 148.8542 deg

Mean motion: 14.45620901 rev/day

Mean motion (dot): 0.00001132 rev/day2

B* drag term: 0.00016802086 1/REarth

Two-line elements (TLE)

Creation date: Dec. 12, 2025, 10:14 a.m.

Reference frame: TEME

Reference center: EARTH

Epoch: Dec. 12, 2025, 5:52 a.m. UTC

TLE line 0: 0 SL-24 R/B

TLE line 1: 1 31699U 07026B 25346.24492964 .00001132 00000-0 16802-3 0 9990

TLE line 2: 2 31699 97.4395 333.9287 0333138 219.8396 148.8542 14.45620901972519

Live tracking on map

Real-time ground track for satellite SL-24 R/B.

In-orbit conjunctions

A list of the most updated potential collisions computed for object SL-24 R/B.

Target Orbit TCA Probability of collision Miss distance Type
COSMOS 2251 DEB LEO 2025-09-25 06:25:50 0.0001340258 74.0 (m) DEBRIS
COSMOS 2251 DEB LEO 2025-09-07 11:38:46 0.005866718 53.0 (m) DEBRIS
FENGYUN 1C DEB SSO 2024-07-03 03:12:27 0.0002099335 95.0 (m) DEBRIS

Associated space launch

German Earth observation satellite

SL-24 R/B was lifted into orbit during the mission ‘Dnepr | TerraSAR-X’, on board a Dnepr space rocket.

The launch took place on June 15, 2007, 2:14 a.m. from 109/95.

For more information about the launch, click the button.

Launch to space Dnepr | TerraSAR-X
Dnepr | TerraSAR-X

Agency: N/A

Status: Launch Successful

Launch date: June 15, 2007, 2:14 a.m. UTC

Rocket: Dnepr

Launch pad: 109/95

Location: Baikonur Cosmodrome, Republic of Kazakhstan

...

Latest news about this satellite

There are no fresh news available about this satellite. Check back as we update our databases every day.


Newsletter sign-up

Weekly statistics, charts and insights to help you stay on top of the space industry.